Back to catalog

STARLINK-2565

AliveCommunicationsVLEO
NORAD 48280·PAYLOAD·🇺🇸 United States

Launched Apr 29, 2021 from Cape Canaveral Space Force Station

Loading…

Next Passes (next 24 hours)

TLE

FreshSource: CelesTrak SupGP

Epoch: Sep 14, 2026, 20:42 UTC

1 48280C 21036E   26257.86298611 -.00007957  00000+0 -25591-3 0  2578
2 48280  53.1573 300.8210 0001180  90.2634 126.9034 15.31701731    11

Track STARLINK-2565 in real time with AllMySat

Download on the App Store